Simultaneous Nadir Overpasses (SNOs) Predictions

Prediction of SNOs between NOAA-19 and TERRA Satellite Orbit:

Table of predicted SNOs for the next 14.0 days since TLE Epoch: 10/28/2023
Index Date (NOAA-19) Time (NOAA-19) Lat,Lon (NOAA-19) SZA (NOAA-19 ) Date (TERRA) Time (TERRA) Lat,Lon (TERRA) SZA (TERRA ) Distance(km) Time Diff (sec)
1 10/28/2023 19:14:40 -80.71, 100.76 84.61 10/28/2023 19:15:43 -80.70, 100.60 84.61 3.03 63
2 10/28/2023 20:05:42 80.73, -91.63 95.45 10/28/2023 20:05:03 80.73, -91.45 95.45 3.25 39
3 10/30/2023 23:05:03 80.72,-136.62 96.13 10/30/2023 23:05:40 80.72,-136.71 96.14 1.60 37
4 10/30/2023 23:55:58 -80.72, 30.77 83.85 10/30/2023 23:55:03 -80.72, 30.94 83.86 3.19 55
5 11/02/2023 02:55:19 -80.71, -14.40 83.21 11/02/2023 02:55:40 -80.70, -14.43 83.21 0.82 21
6 11/04/2023 06:45:42 80.72, 108.30 97.50 11/04/2023 06:45:36 80.72, 108.27 97.50 0.87 6
7 11/06/2023 09:45:04 80.69, 62.74 98.06 11/06/2023 09:46:13 80.68, 62.60 98.06 2.60 69
8 11/06/2023 10:35:57 -80.71,-129.43 81.87 11/06/2023 10:35:35 -80.71,-129.39 81.87 0.70 22
9 11/08/2023 13:35:18 -80.69,-174.75 81.31 11/08/2023 13:36:11 -80.68,-174.86 81.30 2.01 53
10 11/08/2023 14:26:21 80.70, -7.08 98.76 11/08/2023 14:25:31 80.70, -6.99 98.75 1.69 50
11 11/10/2023 17:25:42 80.68, -52.43 99.29 11/10/2023 17:26:06 80.69, -52.27 99.32 3.10 24



Historial Predications of SNOs between NOAA-19 and TERRA
